[[{"header":{"parameterUnit":"m.s-1","parameterCategory":2,"la1":30.2991,"la2":30.254,"lo1":-89.0895,"lo2":-89.0444,"dy":0.0017,"dx":0.0017,"nx":28,"ny":28,"refTime":"2023-08-27T21:00:00:Z","depth":"0","parameterNumber":2,"parameterNumberName":"U-component_of_CURRENTS"},"data":[0,0,0,0,0,0,0,0,0,0,0,0,0,0,0,0,0,0,0,0,0,0,0,0,0,0,0,0,0,0,0,0,0,0,0,0,0,0,0,0,0,0,0,0,0,0,0,0,0,0,0,0,0,0,0,0,0,0,-0.3117,-0.3118,0,-0.3123,-0.3122,-0.3122,-0.3037,-0.3035,-0.3034,-0.3032,-0.2956,-0.2956,-0.2956,0,0,0,0,0,0,0,0,0,0,0,0,0,-0.2708,-0.2717,-0.3117,-0.3118,-0.3118,-0.3123,-0.3122,-0.3122,-0.3038,-0.3035,-0.3033,-0.3031,-0.2957,-0.2956,-0.2956,0,0,0,0,0,0,0,0,0,0,0,0,0,-0.2812,-0.272,-0.3117,-0.3081,-0.3078,-0.3123,-0.3122,-0.3122,-0.3038,-0.3035,-0.3033,-0.303,-0.2957,-0.2956,-0.2956,-0.3006,0,0,-0.2954,-0.2954,0,0,0,0,0,0,0,0,-0.2807,-0.2827,-0.3086,-0.3083,-0.308,-0.3081,-0.295,-0.3081,-0.3039,-0.3047,-0.3032,-0.3029,-0.2996,-0.2993,-0.2993,-0.3003,-0.2999,-0.2954,-0.2954,-0.2954,-0.2953,0,0,0,0,0,0,0,-0.28,-0.2824,-0.3114,-0.3087,-0.3084,-0.2953,-0.2967,-0.2973,-0.3031,-0.3046,-0.3042,-0.3052,-0.2993,-0.2993,-0.299,-0.2998,-0.2954,-0.2954,-0.2953,-0.2953,-0.2969,-0.2969,0,0,0,0,0,0,-0.2833,-0.2821,-0.3113,-0.3114,-0.294,-0.2964,-0.298,-0.3079,-0.3033,-0.3025,-0.3054,-0.3048,-0.2996,-0.2991,-0.2987,-0.3004,-0.2954,-0.2953,-0.2953,-0.2968,-0.2969,-0.2969,0,0,0,0,0,0,-0.2826,-0.2863,-0.3113,-0.2964,-0.2988,-0.2977,-0.3087,-0.3081,-0.3069,-0.3041,-0.303,-0.3048,-0.2993,-0.2988,-0.2975,-0.3001,-0.2953,-0.2952,-0.2967,-0.2968,-0.2969,-0.3063,0,0,0,0,0,0,-0.2816,-0.2863,-0.2915,-0.2971,-0.2998,-0.314,-0.309,-0.3083,-0.3083,-0.3075,-0.3033,-0.3023,-0.2991,-0.2976,-0.2974,-0.3,-0.2952,-0.2966,-0.2967,-0.2969,-0.3059,-0.3067,-0.3074,0,0,0,0,0,-0.2802,-0.2873,-0.292,-0.2952,-0.3086,-0.3143,-0.3143,-0.3116,-0.3086,-0.3093,-0.3052,-0.3024,-0.2982,-0.2976,-0.2974,-0.3,-0.2965,-0.2967,-0.2969,-0.3056,-0.3066,-0.3074,0,0,0,0,0,0,-0.2685,-0.2875,-0.2925,-0.3045,-0.3099,-0.313,-0.3123,-0.3125,-0.3102,-0.3082,-0.304,-0.303,-0.3024,-0.3002,-0.2996,-0.3006,-0.2968,-0.2969,-0.3035,-0.3044,-0.3051,-0.2936,-0.2952,0,0,0,0,0,-0.2708,-0.2809,-0.2955,-0.302,-0.308,-0.311,-0.3119,-0.3125,-0.3126,-0.3112,-0.3086,-0.3054,-0.3036,-0.3029,-0.3008,-0.3029,-0.2948,-0.304,-0.3048,-0.3054,-0.2957,-0.2875,-0.2864,-0.2975,-0.2975,-0.2975,0,0,-0.2651,-0.2776,-0.2817,-0.3,-0.3041,-0.3087,-0.3106,-0.3142,-0.3143,-0.3111,-0.3083,-0.308,-0.3044,-0.305,-0.3047,-0.3034,-0.3002,-0.3056,-0.3063,-0.2959,-0.2875,-0.2863,-0.2853,-0.2976,-0.2976,-0.2976,0,0,-0.2563,-0.2748,-0.2795,-0.2876,-0.2989,-0.3044,-0.3066,-0.314,-0.3151,-0.3175,-0.3126,-0.3116,-0.3127,-0.308,-0.3064,-0.31,-0.3039,-0.313,-0.3083,-0.3009,-0.2997,-0.2986,-0.2956,-0.294,-0.3142,-0.3142,-0.3142,0,-0.249,-0.2616,-0.2789,-0.2853,-0.2889,-0.303,-0.3044,-0.3103,-0.3135,-0.3117,-0.3171,-0.3106,-0.3122,-0.3048,-0.3074,-0.3112,-0.3064,-0.3064,-0.3015,-0.3001,-0.2988,-0.2958,-0.294,-0.3147,-0.3146,-0.3146,-0.3145,0,-0.2446,-0.2539,-0.2572,-0.2729,-0.2781,-0.2837,-0.2973,-0.3013,-0.3077,-0.3099,-0.3081,-0.3111,-0.3041,-0.3102,-0.3109,-0.3024,-0.3026,-0.3035,-0.2988,-0.2981,-0.2954,-0.2933,-0.3153,-0.3152,-0.315,-0.3149,0,0,-0.2348,-0.2513,-0.2528,-0.2575,-0.2741,-0.2794,-0.2826,-0.2893,-0.2894,-0.2967,-0.2917,-0.295,-0.2954,-0.2928,-0.2957,-0.2924,-0.2882,-0.2944,-0.2938,-0.2903,-0.2734,-0.2697,-0.2672,-0.2887,-0.2882,-0.2878,-0.2784,0,-0.2272,-0.2342,-0.2433,-0.2464,-0.2538,-0.2657,-0.2678,-0.2735,-0.2818,-0.2829,-0.2861,-0.2857,-0.2902,-0.2911,-0.2866,-0.2877,-0.2814,-0.2905,-0.2745,-0.2739,-0.2698,-0.264,-0.2544,-0.2444,-0.2763,-0.276,-0.2757,0,-0.2245,-0.2304,-0.2317,-0.2403,-0.2443,-0.2455,-0.2528,-0.2568,-0.2614,-0.2665,-0.2629,-0.2677,-0.2634,-0.2711,-0.2614,-0.2674,-0.2656,-0.2673,-0.2671,-0.2548,-0.2658,-0.2482,-0.2393,-0.2385,-0.2724,-0.2727,-0.2729,0,-0.2166,-0.2243,-0.2249,-0.2289,-0.2395,-0.238,-0.2427,-0.2482,-0.2527,-0.2545,-0.2573,-0.2509,-0.254,-0.2462,-0.2521,-0.2555,-0.2432,-0.2495,-0.2415,-0.2418,-0.2242,-0.2235,-0.2087,-0.2332,-0.2332,-0.2333,-0.2333,0,-0.2133,-0.2145,-0.2218,-0.2244,-0.2243,-0.2321,-0.2325,-0.2367,-0.2409,-0.243,-0.2473,-0.2473,-0.2478,-0.2453,-0.2443,-0.2364,-0.2354,-0.2328,-0.2347,-0.2288,-0.2285,-0.2194,-0.224,-0.2329,-0.233,-0.2331,-0.2331,0,-0.2065,-0.212,-0.2145,-0.2205,-0.2223,-0.2226,-0.2292,-0.2307,-0.2362,-0.2383,-0.239,-0.2438,-0.2401,-0.2397,-0.233,-0.2295,-0.2179,-0.2183,-0.214,-0.2151,-0.2054,-0.2111,-0.1906,-0.1851,-0.2045,-0.2043,-0.2041,0,-0.2035,-0.2045,-0.2105,-0.2118,-0.214,-0.2168,-0.2191,-0.2265,-0.2295,-0.236,-0.236,-0.2355,-0.2329,-0.2232,-0.2159,-0.2061,-0.2079,-0.192,-0.1927,-0.1955,-0.2034,-0.2088,-0.2062,-0.1786,-0.1783,-0.178,-0.1777,0,-0.1958,-0.1981,-0.2,-0.2027,-0.2048,-0.2079,-0.2119,-0.2137,-0.2223,-0.2244,-0.2247,-0.2227,-0.217,-0.204,-0.1947,-0.1875,-0.1875,-0.1852,-0.1856,-0.1744,-0.1807,-0.1799,-0.2005,-0.175,-0.1752,-0.1754,-0.1756,-0.1757,-0.1878,-0.1871,-0.1898,-0.1908,-0.1938,-0.1945,-0.1917,-0.1974,-0.1982,-0.1963,-0.2068,-0.1977,-0.1948,-0.1797,-0.1735,-0.16,-0.1671,-0.1534,-0.1587,-0.163,-0.1575,-0.1733,-0.1524,-0.1525,-0.1526,-0.1527,-0.1528,0,-0.1765,-0.1767,-0.1777,-0.178,-0.1759,-0.1819,-0.1831,-0.1764,-0.1706,-0.1701,-0.1682,-0.1638,-0.157,-0.1541,-0.1461,-0.1371,-0.1346,-0.1327,-0.1364,-0.1338,-0.1426,-0.1412,-0.1197,-0.1197,-0.1197,-0.1197,-0.1197,-0.1197,-0.1702,-0.1662,-0.1667,-0.1583,-0.159,-0.1509,-0.1477,-0.138,-0.131,-0.1163,-0.1108,-0.1052,-0.1206,-0.144,-0.1377,-0.1294,-0.1274,-0.1215,-0.1259,-0.1339,-0.1363,-0.1386,-0.138,-0.1161,-0.1161,-0.1099,-0.1099,-0.1099]},{"header":{"parameterUnit":"m.s-1","parameterCategory":2,"la1":30.2991,"la2":30.254,"lo1":-89.0895,"lo2":-89.0444,"dy":0.0017,"dx":0.0017,"nx":28,"ny":28,"refTime":"2023-08-27T21:00:00:Z","depth":"0","parameterNumber":3,"parameterNumberName":"V-component_of_CURRENTS"},"data":[0,0,0,0,0,0,0,0,0,0,0,0,0,0,0,0,0,0,0,0,0,0,0,0,0,0,0,0,0,0,0,0,0,0,0,0,0,0,0,0,0,0,0,0,0,0,0,0,0,0,0,0,0,0,0,0,0,0,-0.0264,-0.0264,0,-0.028,-0.028,-0.028,-0.0248,-0.0247,-0.0246,-0.0245,-0.0189,-0.0189,-0.0188,0,0,0,0,0,0,0,0,0,0,0,0,0,-0.0294,-0.0293,-0.0264,-0.0264,-0.0264,-0.028,-0.028,-0.028,-0.0248,-0.0247,-0.0245,-0.0244,-0.0189,-0.0189,-0.0188,0,0,0,0,0,0,0,0,0,0,0,0,0,-0.0292,-0.0292,-0.0264,-0.025,-0.0249,-0.028,-0.028,-0.0281,-0.0248,-0.0247,-0.0245,-0.0244,-0.019,-0.0189,-0.0188,-0.0216,0,0,-0.0186,-0.0186,0,0,0,0,0,0,0,0,-0.0292,-0.0291,-0.0252,-0.0251,-0.025,-0.026,-0.0271,-0.0255,-0.0249,-0.0248,-0.0245,-0.0243,-0.0208,-0.0205,-0.0213,-0.0213,-0.0211,-0.0186,-0.0185,-0.0185,-0.0185,0,0,0,0,0,0,0,-0.0292,-0.0291,-0.027,-0.0252,-0.0251,-0.0274,-0.0271,-0.0268,-0.0235,-0.0248,-0.0246,-0.0248,-0.0206,-0.0214,-0.0211,-0.021,-0.0186,-0.0185,-0.0185,-0.0185,-0.0183,-0.0183,0,0,0,0,0,0,-0.0287,-0.029,-0.0269,-0.027,-0.0268,-0.0274,-0.0271,-0.0258,-0.0237,-0.0233,-0.025,-0.0247,-0.0216,-0.0212,-0.0209,-0.0184,-0.0185,-0.0184,-0.0184,-0.0182,-0.0183,-0.0183,0,0,0,0,0,0,-0.0288,-0.0285,-0.0269,-0.0282,-0.0281,-0.0274,-0.0261,-0.026,-0.0259,-0.0239,-0.0233,-0.0249,-0.0214,-0.021,-0.021,-0.0183,-0.0184,-0.0183,-0.0182,-0.0182,-0.0183,-0.0169,0,0,0,0,0,0,-0.0288,-0.0284,-0.0284,-0.0281,-0.028,-0.0287,-0.0263,-0.0261,-0.0263,-0.0259,-0.0237,-0.0231,-0.0213,-0.0211,-0.0209,-0.0182,-0.0183,-0.0181,-0.0182,-0.0183,-0.0169,-0.0169,-0.017,0,0,0,0,0,-0.0289,-0.03,-0.0283,-0.0281,-0.0275,-0.0288,-0.029,-0.0281,-0.0265,-0.0272,-0.0259,-0.0231,-0.0213,-0.0212,-0.0209,-0.0181,-0.0181,-0.0182,-0.0183,-0.0169,-0.0169,-0.017,0,0,0,0,0,0,-0.0326,-0.0298,-0.0279,-0.0283,-0.0282,-0.0282,-0.0295,-0.0284,-0.0282,-0.0275,-0.0248,-0.0243,-0.0231,-0.0221,-0.022,-0.0185,-0.0187,-0.0188,-0.0178,-0.0178,-0.0178,-0.0172,-0.0182,0,0,0,0,0,-0.033,-0.0326,-0.0305,-0.0315,-0.0307,-0.0299,-0.0305,-0.0296,-0.0292,-0.0289,-0.0272,-0.0253,-0.0237,-0.022,-0.0216,-0.0203,-0.0179,-0.0182,-0.0182,-0.0182,-0.0177,-0.0132,-0.0127,-0.0186,-0.0186,-0.0186,0,0,-0.0351,-0.0337,-0.0335,-0.0322,-0.0318,-0.032,-0.0299,-0.0309,-0.0305,-0.0285,-0.0279,-0.0263,-0.024,-0.0223,-0.0214,-0.0205,-0.0153,-0.0183,-0.0183,-0.0177,-0.0132,-0.0126,-0.0121,-0.0186,-0.0186,-0.0186,0,0,-0.04,-0.037,-0.038,-0.0376,-0.0368,-0.0351,-0.035,-0.0341,-0.0324,-0.0327,-0.03,-0.0264,-0.0262,-0.0215,-0.0196,-0.0196,-0.0166,-0.0202,-0.0178,-0.0135,-0.0129,-0.0123,-0.008,-0.0071,-0.0187,-0.0187,-0.0187,0,-0.0426,-0.0427,-0.0392,-0.0404,-0.0406,-0.036,-0.0376,-0.0354,-0.0349,-0.0336,-0.0325,-0.0286,-0.0247,-0.0201,-0.0186,-0.0188,-0.0175,-0.0174,-0.0132,-0.0126,-0.0121,-0.0078,-0.0068,-0.0186,-0.0186,-0.0186,-0.0186,0,-0.048,-0.0479,-0.0489,-0.0469,-0.0467,-0.0478,-0.0433,-0.0417,-0.0386,-0.0363,-0.0327,-0.0279,-0.0248,-0.0218,-0.0195,-0.0134,-0.0142,-0.0146,-0.0125,-0.0113,-0.007,-0.0059,-0.0185,-0.0186,-0.0186,-0.0186,0,0,-0.0531,-0.0525,-0.0527,-0.053,-0.0501,-0.0506,-0.0479,-0.0445,-0.0424,-0.0385,-0.036,-0.0284,-0.025,-0.0225,-0.0179,-0.0113,-0.0036,-0.011,-0.0108,-0.0056,0.0049,0.01,0.0116,-0.0045,-0.0043,-0.0042,0.0066,0,-0.0579,-0.062,-0.0595,-0.0618,-0.0627,-0.0573,-0.0554,-0.0515,-0.0468,-0.0428,-0.0338,-0.0305,-0.0255,-0.023,-0.0157,-0.0079,-0.0011,-0.0065,0.0019,0.0023,0.0076,0.013,0.0174,0.0278,0.0077,0.0078,0.008,0,-0.0627,-0.0648,-0.069,-0.0682,-0.0678,-0.068,-0.0633,-0.0613,-0.0528,-0.0493,-0.0427,-0.0369,-0.0254,-0.0223,-0.0064,-0.0113,-0.0029,0.0042,0.0047,0.0098,0.0093,0.0231,0.0305,0.0454,0.0096,0.0095,0.0093,0,-0.0683,-0.0703,-0.0739,-0.0743,-0.0727,-0.0726,-0.0706,-0.064,-0.0616,-0.0531,-0.0506,-0.0389,-0.032,-0.0209,-0.0045,-0.0064,0.0124,0.0112,0.0238,0.0241,0.0302,0.0308,0.0542,0.0225,0.0224,0.0224,0.0224,0,-0.0736,-0.076,-0.0771,-0.0794,-0.082,-0.0788,-0.0791,-0.0746,-0.0684,-0.0647,-0.0548,-0.0486,-0.0314,-0.0185,-0.0058,0.0134,0.0114,0.0263,0.0283,0.0306,0.0312,0.046,0.0512,0.0228,0.0227,0.0226,0.0226,0,-0.0786,-0.0795,-0.0836,-0.0847,-0.085,-0.0871,-0.0857,-0.0849,-0.0784,-0.0731,-0.0704,-0.0547,-0.0367,-0.0193,0.0019,0.0131,0.0405,0.0366,0.0388,0.041,0.0658,0.0707,0.0937,0.1038,0.0521,0.0524,0.0525,0,-0.0815,-0.0845,-0.0888,-0.0919,-0.0928,-0.0951,-0.0959,-0.0907,-0.0886,-0.0757,-0.0728,-0.0545,-0.0386,-0.0064,0.0173,0.0412,0.0512,0.0576,0.0568,0.071,0.078,0.08,0.0868,0.0652,0.0655,0.0657,0.0659,0,-0.0865,-0.0882,-0.0918,-0.0988,-0.1019,-0.1048,-0.1049,-0.1043,-0.0954,-0.0879,-0.0725,-0.0584,-0.025,0.0073,0.0376,0.0508,0.0704,0.0628,0.0777,0.092,0.0956,0.1048,0.0536,0.0678,0.0676,0.0675,0.0674,0.0673,-0.0892,-0.0938,-0.099,-0.1048,-0.1087,-0.1118,-0.1109,-0.1079,-0.1016,-0.0819,-0.0702,-0.0369,0.0002,0.0456,0.0613,0.0951,0.0893,0.1034,0.1087,0.1097,0.1196,0.0732,0.0891,0.0891,0.089,0.0889,0.0889,0,-0.0921,-0.0975,-0.1043,-0.1108,-0.115,-0.1156,-0.1137,-0.1069,-0.0961,-0.0723,-0.0508,0.0088,0.0459,0.082,0.1227,0.14,0.1435,0.1469,0.1517,0.1569,0.1171,0.118,0.1407,0.1407,0.1406,0.1406,0.1406,0.1406,-0.0939,-0.101,-0.1051,-0.1132,-0.1172,-0.1148,-0.1115,-0.0987,-0.0784,-0.0353,0.0093,0.04,0.0874,0.1431,0.1792,0.1812,0.1978,0.194,0.2035,0.1761,0.1724,0.1688,0.1713,0.2047,0.2048,0.242,0.2424,0.2427]}],[{"header":{"parameterUnit":"m.s-1","parameterCategory":2,"la1":30.2991,"la2":30.254,"lo1":-89.0895,"lo2":-89.0444,"dy":0.0017,"dx":0.0017,"nx":28,"ny":28,"refTime":"2023-08-27T21:00:00:Z","depth":"2","parameterNumber":2,"parameterNumberName":"U-component_of_CURRENTS"},"data":[0,0,0,0,0,0,0,0,0,0,0,0,0,0,0,0,0,0,0,0,0,0,0,0,0,0,0,0,0,0,0,0,0,0,0,0,0,0,0,0,0,0,0,0,0,0,0,0,0,0,0,0,0,0,0,0,0,0,-0.2078,-0.2078,0,-0.2132,-0.2132,-0.2133,-0.2155,-0.2154,-0.2154,-0.2154,-0.2222,-0.2224,-0.2226,0,0,0,0,0,0,0,0,0,0,0,0,0,-0.2086,-0.2085,-0.2078,-0.2079,-0.2079,-0.2132,-0.2132,-0.2133,-0.2155,-0.2154,-0.2154,-0.2154,-0.2221,-0.2224,-0.2226,0,0,0,0,0,0,0,0,0,0,0,0,0,-0.2107,-0.2085,-0.2078,-0.2095,-0.2097,-0.2131,-0.2132,-0.2133,-0.2155,-0.2154,-0.2154,-0.2154,-0.222,-0.2223,-0.2226,-0.2253,0,0,-0.2236,-0.2237,0,0,0,0,0,0,0,0,-0.2105,-0.2106,-0.2092,-0.2094,-0.2096,-0.2135,-0.216,-0.2174,-0.2155,-0.2134,-0.2154,-0.2153,-0.2193,-0.2199,-0.2211,-0.2256,-0.2259,-0.2236,-0.2238,-0.2239,-0.224,0,0,0,0,0,0,0,-0.2104,-0.2105,-0.2101,-0.2093,-0.2095,-0.2132,-0.2133,-0.2163,-0.2167,-0.2136,-0.2137,-0.2141,-0.2195,-0.2208,-0.2213,-0.226,-0.2236,-0.2239,-0.2241,-0.2242,-0.245,-0.2454,0,0,0,0,0,0,-0.209,-0.2103,-0.2099,-0.2102,-0.2098,-0.2131,-0.2133,-0.2124,-0.2166,-0.2172,-0.2142,-0.2142,-0.2203,-0.221,-0.2216,-0.2269,-0.2239,-0.2242,-0.2244,-0.2447,-0.2451,-0.2455,0,0,0,0,0,0,-0.2089,-0.2088,-0.2097,-0.2104,-0.2107,-0.2131,-0.2121,-0.2125,-0.2141,-0.217,-0.2176,-0.2152,-0.2203,-0.2211,-0.2268,-0.2271,-0.2243,-0.2246,-0.2442,-0.2448,-0.2453,-0.2364,0,0,0,0,0,0,-0.2089,-0.2088,-0.2088,-0.2102,-0.2106,-0.212,-0.2121,-0.2126,-0.2143,-0.2144,-0.2181,-0.2187,-0.2204,-0.2264,-0.2271,-0.2275,-0.2249,-0.2438,-0.2445,-0.2451,-0.2362,-0.2366,-0.2369,0,0,0,0,0,-0.2089,-0.2102,-0.2088,-0.2088,-0.2101,-0.2121,-0.2127,-0.2144,-0.2143,-0.2155,-0.2195,-0.2186,-0.2314,-0.2268,-0.2276,-0.2281,-0.2434,-0.2443,-0.2451,-0.2361,-0.2365,-0.2369,0,0,0,0,0,0,-0.211,-0.2106,-0.209,-0.21,-0.2104,-0.2124,-0.2144,-0.2146,-0.2185,-0.2195,-0.2214,-0.2225,-0.2282,-0.2317,-0.2266,-0.2378,-0.2381,-0.2391,-0.231,-0.2314,-0.2317,-0.2287,-0.2251,0,0,0,0,0,-0.211,-0.2114,-0.2109,-0.2116,-0.2117,-0.2126,-0.2139,-0.2148,-0.2178,-0.2194,-0.222,-0.2275,-0.2325,-0.2344,-0.2401,-0.2443,-0.2434,-0.2469,-0.2471,-0.2473,-0.2465,-0.2449,-0.2446,-0.2483,-0.2482,-0.2482,0,0,-0.2117,-0.2118,-0.2118,-0.2121,-0.2126,-0.2147,-0.2134,-0.2158,-0.2178,-0.2198,-0.2247,-0.2283,-0.2347,-0.2401,-0.243,-0.2422,-0.2465,-0.2484,-0.2483,-0.2475,-0.2457,-0.2452,-0.2448,-0.2488,-0.2487,-0.2486,0,0,-0.214,-0.2132,-0.214,-0.2152,-0.2163,-0.2173,-0.2176,-0.2195,-0.2205,-0.2248,-0.228,-0.2304,-0.2393,-0.2412,-0.244,-0.2501,-0.2487,-0.2555,-0.2522,-0.2506,-0.25,-0.2495,-0.2469,-0.2462,-0.2546,-0.2545,-0.2545,0,-0.2142,-0.2147,-0.2149,-0.2169,-0.2178,-0.2182,-0.2196,-0.2219,-0.2258,-0.2264,-0.2265,-0.2365,-0.2386,-0.2434,-0.2455,-0.2492,-0.2497,-0.2477,-0.2498,-0.2493,-0.2488,-0.2464,-0.2457,-0.2542,-0.2543,-0.2543,-0.2543,0,-0.2167,-0.2179,-0.2191,-0.2206,-0.2225,-0.2241,-0.226,-0.2283,-0.2288,-0.2298,-0.2337,-0.2363,-0.241,-0.243,-0.2449,-0.2459,-0.2476,-0.2495,-0.2454,-0.2477,-0.2454,-0.2447,-0.2537,-0.2539,-0.254,-0.254,0,0,-0.2121,-0.2188,-0.2186,-0.2199,-0.224,-0.2251,-0.2295,-0.2309,-0.2322,-0.2347,-0.2347,-0.2396,-0.2388,-0.2423,-0.2445,-0.2421,-0.2365,-0.2443,-0.2444,-0.2359,-0.2332,-0.2264,-0.2251,-0.2386,-0.2385,-0.2384,-0.2321,0,-0.2118,-0.2159,-0.2194,-0.2231,-0.2246,-0.2278,-0.2311,-0.2339,-0.2352,-0.2367,-0.2364,-0.2392,-0.2398,-0.2404,-0.238,-0.2391,-0.2351,-0.238,-0.2377,-0.2377,-0.2262,-0.2242,-0.2089,-0.2013,-0.2315,-0.2314,-0.2313,0,-0.2106,-0.2136,-0.217,-0.2226,-0.2231,-0.2261,-0.229,-0.2325,-0.2358,-0.2366,-0.2378,-0.2395,-0.2382,-0.2372,-0.2344,-0.2374,-0.2342,-0.2327,-0.2325,-0.2284,-0.2296,-0.2052,-0.1991,-0.2303,-0.2304,-0.2305,-0.2305,0,-0.2051,-0.211,-0.2132,-0.2154,-0.2226,-0.2237,-0.2266,-0.2312,-0.2334,-0.2361,-0.2373,-0.2377,-0.2374,-0.2345,-0.2316,-0.2335,-0.227,-0.2288,-0.2191,-0.2186,-0.2066,-0.2051,-0.2235,-0.2235,-0.2235,-0.2235,-0.2235,0,-0.2023,-0.2036,-0.2107,-0.2121,-0.2138,-0.2199,-0.222,-0.2256,-0.2301,-0.232,-0.2361,-0.2364,-0.2368,-0.2344,-0.2308,-0.2225,-0.2258,-0.2166,-0.2157,-0.2036,-0.2021,-0.2295,-0.2303,-0.2233,-0.2233,-0.2234,-0.2234,0,-0.1959,-0.2012,-0.2038,-0.21,-0.2118,-0.2126,-0.2193,-0.221,-0.2269,-0.2293,-0.2302,-0.2348,-0.2313,-0.2301,-0.2247,-0.2204,-0.2137,-0.2096,-0.195,-0.1924,-0.2066,-0.2071,-0.1973,-0.197,-0.1967,-0.1965,-0.1963,0,-0.1931,-0.1941,-0.2003,-0.2017,-0.2041,-0.2074,-0.2097,-0.2173,-0.2204,-0.2271,-0.2274,-0.2271,-0.2239,-0.2148,-0.2068,-0.1974,-0.2048,-0.1785,-0.1775,-0.2033,-0.2035,-0.2045,-0.2054,-0.1583,-0.1578,-0.1574,-0.1571,0,-0.186,-0.1883,-0.1904,-0.1933,-0.1956,-0.1989,-0.2032,-0.2049,-0.2136,-0.2161,-0.2164,-0.2139,-0.2077,-0.1912,-0.1817,-0.1744,-0.1791,-0.1701,-0.199,-0.1681,-0.1662,-0.1666,-0.1688,-0.1536,-0.1539,-0.1542,-0.1544,-0.1545,-0.1787,-0.1782,-0.1808,-0.182,-0.1853,-0.1861,-0.1829,-0.1897,-0.1906,-0.1897,-0.1975,-0.188,-0.1859,-0.1618,-0.1518,-0.1435,-0.156,-0.1483,-0.1496,-0.1513,-0.1488,-0.1466,-0.1297,-0.1299,-0.13,-0.1302,-0.1303,0,-0.1682,-0.1684,-0.1694,-0.1695,-0.1667,-0.173,-0.1749,-0.1693,-0.1644,-0.168,-0.165,-0.1462,-0.135,-0.1326,-0.1149,-0.1113,-0.1113,-0.1057,-0.1062,-0.1097,-0.1128,-0.1085,-0.0786,-0.0785,-0.0784,-0.0782,0,0,-0.1625,-0.1586,-0.1588,-0.1493,-0.1491,-0.1387,-0.1354,-0.1315,-0.1302,-0.1228,-0.1185,-0.1262,-0.1287,-0.1042,-0.098,-0.0855,-0.0965,-0.0804,-0.1217,-0.1259,-0.1288,-0.137,-0.1342,0,0,0,0,0]},{"header":{"parameterUnit":"m.s-1","parameterCategory":2,"la1":30.2991,"la2":30.254,"lo1":-89.0895,"lo2":-89.0444,"dy":0.0017,"dx":0.0017,"nx":28,"ny":28,"refTime":"2023-08-27T21:00:00:Z","depth":"2","parameterNumber":3,"parameterNumberName":"V-component_of_CURRENTS"},"data":[0,0,0,0,0,0,0,0,0,0,0,0,0,0,0,0,0,0,0,0,0,0,0,0,0,0,0,0,0,0,0,0,0,0,0,0,0,0,0,0,0,0,0,0,0,0,0,0,0,0,0,0,0,0,0,0,0,0,-0.0252,-0.0252,0,-0.0165,-0.0164,-0.0163,-0.01,-0.01,-0.0099,-0.0099,0.0016,0.0018,0.0021,0,0,0,0,0,0,0,0,0,0,0,0,0,-0.03,-0.03,-0.0253,-0.0252,-0.025,-0.0165,-0.0164,-0.0162,-0.01,-0.01,-0.0099,-0.0098,0.0015,0.0018,0.0021,0,0,0,0,0,0,0,0,0,0,0,0,0,-0.0253,-0.03,-0.0253,-0.0209,-0.0205,-0.0165,-0.0164,-0.0162,-0.01,-0.01,-0.0099,-0.0098,0.0014,0.0018,0.0022,0.0031,0,0,0.0034,0.0035,0,0,0,0,0,0,0,0,-0.0255,-0.0251,-0.0217,-0.0212,-0.0207,-0.0143,-0.0138,-0.0096,-0.01,-0.0139,-0.0099,-0.0098,-0.0036,-0.0028,-0.0012,0.0037,0.0042,0.0034,0.0036,0.0038,0.0039,0,0,0,0,0,0,0,-0.0259,-0.0254,-0.0217,-0.0216,-0.021,-0.0171,-0.0165,-0.013,-0.0092,-0.0136,-0.0131,-0.0122,-0.0032,-0.0016,-0.0009,0.0043,0.0034,0.0037,0.004,0.0041,0.0177,0.0178,0,0,0,0,0,0,-0.0275,-0.0258,-0.022,-0.0215,-0.023,-0.0172,-0.0164,-0.0164,-0.0093,-0.0081,-0.0123,-0.012,-0.0023,-0.0014,-0.0005,0.0021,0.0038,0.0042,0.0044,0.0176,0.0177,0.0179,0,0,0,0,0,0,-0.0276,-0.0273,-0.0224,-0.0234,-0.0225,-0.0172,-0.0172,-0.0163,-0.0146,-0.0083,-0.0071,-0.0117,-0.0022,-0.001,0.0028,0.0026,0.0043,0.0047,0.0174,0.0176,0.0178,0.0067,0,0,0,0,0,0,-0.0278,-0.0274,-0.0275,-0.0235,-0.0225,-0.0209,-0.0173,-0.0161,-0.0142,-0.0137,-0.0074,-0.0062,-0.0021,0.0022,0.0032,0.0031,0.005,0.0173,0.0175,0.0178,0.0069,0.0065,0.0061,0,0,0,0,0,-0.028,-0.0289,-0.0276,-0.0271,-0.023,-0.021,-0.0202,-0.016,-0.0142,-0.0142,-0.0093,-0.0064,0.0046,0.0025,0.0037,0.0037,0.0172,0.0175,0.0177,0.0071,0.0066,0.0061,0,0,0,0,0,0,-0.0315,-0.0283,-0.0268,-0.0267,-0.0244,-0.02,-0.0193,-0.0168,-0.013,-0.0123,-0.0064,-0.0049,-0.0011,0.0036,0.0012,0.0092,0.012,0.0125,0.0035,0.0031,0.0027,0.0008,0.0053,0,0,0,0,0,-0.0324,-0.0322,-0.0287,-0.029,-0.028,-0.0239,-0.0224,-0.02,-0.0162,-0.0145,-0.01,-0.004,0.0011,0.0035,0.0087,0.0115,0.0158,0.0134,0.013,0.0126,0.0124,0.0177,0.0176,0.0188,0.0188,0.0188,0,0,-0.034,-0.0322,-0.0321,-0.0297,-0.0275,-0.0269,-0.0229,-0.0216,-0.0206,-0.0139,-0.0112,-0.0059,0.0017,0.0055,0.0077,0.009,0.0147,0.013,0.0125,0.0125,0.018,0.0178,0.0177,0.019,0.019,0.0189,0,0,-0.0376,-0.0356,-0.0366,-0.0352,-0.0325,-0.0295,-0.0297,-0.0256,-0.0233,-0.0205,-0.0145,-0.01,-0.0026,0.0024,0.0061,0.0069,0.0123,0.01,0.0058,0.0109,0.0108,0.0107,0.015,0.0154,0.0098,0.0098,0.0098,0,-0.0396,-0.0403,-0.0368,-0.0376,-0.0367,-0.0313,-0.0325,-0.0293,-0.0245,-0.0223,-0.0207,-0.009,-0.0042,0.0017,0.0021,0.0054,0.0096,0.0056,0.0099,0.0099,0.01,0.0145,0.015,0.0093,0.0093,0.0094,0.0094,0,-0.0442,-0.0443,-0.0451,-0.0439,-0.0426,-0.0427,-0.0383,-0.0359,-0.0323,-0.0286,-0.0228,-0.016,-0.0087,-0.0062,-0.0024,0.002,0.005,0.0079,0.0094,0.0091,0.014,0.0147,0.0086,0.0087,0.0089,0.009,0,0,-0.0491,-0.0484,-0.0485,-0.049,-0.0459,-0.0454,-0.0435,-0.0396,-0.0376,-0.0323,-0.0292,-0.0215,-0.0171,-0.0124,-0.0064,-0.0024,0.0004,0.0022,0.0027,0.0036,0.0116,0.0154,0.0167,0.0037,0.0038,0.0039,0.0142,0,-0.0535,-0.0571,-0.0547,-0.0566,-0.0576,-0.0522,-0.0507,-0.0464,-0.0414,-0.0367,-0.029,-0.0236,-0.0194,-0.0161,-0.0117,-0.0015,0.0022,-0.0027,0.0145,0.015,0.016,0.0176,0.0148,0.0239,0.015,0.0152,0.0153,0,-0.0579,-0.0596,-0.0635,-0.0623,-0.0622,-0.0622,-0.0578,-0.0557,-0.0474,-0.0435,-0.0369,-0.0295,-0.0218,-0.0188,-0.0043,-0.0073,0.0008,0.0077,0.0084,0.0164,0.0203,0.0236,0.0257,0.0166,0.0165,0.0164,0.0163,0,-0.0631,-0.0647,-0.068,-0.0682,-0.0665,-0.0664,-0.0645,-0.0581,-0.0558,-0.0475,-0.0445,-0.0336,-0.0274,-0.0165,-0.0021,-0.0028,0.0139,0.0152,0.0262,0.0265,0.0299,0.0304,0.0245,0.0244,0.0244,0.0244,0.0244,0,-0.0678,-0.0699,-0.0709,-0.0729,-0.0754,-0.0722,-0.0724,-0.0681,-0.0621,-0.0585,-0.0488,-0.043,-0.0265,-0.0143,-0.0028,0.0146,0.0138,0.0259,0.0298,0.0262,0.0262,0.0249,0.0248,0.0248,0.0247,0.0246,0.0246,0,-0.0723,-0.073,-0.0767,-0.0777,-0.0781,-0.0801,-0.0787,-0.078,-0.0716,-0.0665,-0.064,-0.0489,-0.0321,-0.0156,0.0044,0.0146,0.03,0.0361,0.0304,0.0334,0.0391,0.0383,0.0491,0.0493,0.0495,0.0497,0.0498,0,-0.0749,-0.0776,-0.0817,-0.0847,-0.0856,-0.0878,-0.0887,-0.0835,-0.0816,-0.0693,-0.0665,-0.0494,-0.0347,-0.0049,0.016,0.0379,0.0365,0.0468,0.0451,0.0391,0.0418,0.0407,0.0398,0.045,0.0451,0.0452,0.0452,0,-0.0796,-0.0812,-0.0846,-0.0916,-0.0946,-0.0974,-0.0975,-0.0969,-0.0883,-0.0811,-0.0669,-0.054,-0.0241,0.0018,0.0291,0.0404,0.0431,0.0491,0.046,0.039,0.0361,0.0384,0.0374,0.0459,0.0458,0.0457,0.0457,0.0457,-0.0824,-0.0868,-0.092,-0.0978,-0.1017,-0.1047,-0.1056,-0.1024,-0.0965,-0.0818,-0.0681,-0.0463,-0.0211,0.0189,0.0382,0.0538,0.053,0.0561,0.0555,0.055,0.0525,0.05,0.0619,0.062,0.062,0.062,0.062,0,-0.0859,-0.0911,-0.0978,-0.1044,-0.1089,-0.1094,-0.1092,-0.1065,-0.0981,-0.0814,-0.0638,-0.034,-0.0048,0.0186,0.0457,0.063,0.0597,0.0635,0.0562,0.0555,0.0549,0.052,0.0616,0.0617,0.0617,0.0618,0,0,-0.0881,-0.0953,-0.0992,-0.108,-0.1123,-0.1152,-0.1142,-0.1075,-0.096,-0.0766,-0.0588,-0.034,-0.0045,0.0154,0.0365,0.0497,0.0472,0.0496,0.048,0.0361,0.0353,0.0488,0.0435,0,0,0,0,0]}],[{"header":{"parameterUnit":"m.s-1","parameterCategory":2,"la1":30.2991,"la2":30.254,"lo1":-89.0895,"lo2":-89.0444,"dy":0.0017,"dx":0.0017,"nx":28,"ny":28,"refTime":"2023-08-27T21:00:00:Z","depth":"4","parameterNumber":2,"parameterNumberName":"U-component_of_CURRENTS"},"data":[0,0,0,0,0,0,0,0,0,0,0,0,0,0,0,0,0,0,0,0,0,0,0,0,0,0,0,0,0,0,0,0,0,0,0,0,0,0,0,0,0,0,0,0,0,0,0,0,0,0,0,0,0,0,0,0,0,0,-0.1484,-0.1484,0,-0.1524,-0.1524,-0.1525,-0.1547,-0.1547,-0.1547,-0.1547,-0.1606,-0.1608,-0.1609,0,0,0,0,0,0,0,0,0,0,0,0,0,-0.1473,-0.1473,-0.1484,-0.1484,-0.1485,-0.1524,-0.1524,-0.1525,-0.1547,-0.1547,-0.1547,-0.1548,-0.1606,-0.1608,-0.1609,0,0,0,0,0,0,0,0,0,0,0,0,0,-0.1491,-0.1473,-0.1484,-0.1501,-0.1503,-0.1524,-0.1524,-0.1525,-0.1547,-0.1547,-0.1547,-0.1548,-0.1605,-0.1607,-0.161,-0.162,0,0,-0.1616,-0.1617,0,0,0,0,0,0,0,0,-0.149,-0.1491,-0.1498,-0.15,-0.1502,-0.1531,-0.1542,-0.1558,-0.1547,-0.153,-0.1547,-0.1548,-0.1583,-0.1587,-0.1593,-0.1623,-0.1625,-0.1617,-0.1618,-0.1619,-0.1619,0,0,0,0,0,0,0,-0.1489,-0.149,-0.1499,-0.1499,-0.1501,-0.1523,-0.1525,-0.1545,-0.1555,-0.1531,-0.1533,-0.1538,-0.1584,-0.1591,-0.1595,-0.1626,-0.1616,-0.1618,-0.162,-0.1621,-0.171,-0.1711,0,0,0,0,0,0,-0.1482,-0.1489,-0.1498,-0.15,-0.1497,-0.1522,-0.1525,-0.1521,-0.1555,-0.156,-0.1538,-0.1539,-0.1587,-0.1592,-0.1597,-0.1652,-0.1619,-0.1621,-0.1622,-0.1709,-0.1711,-0.1712,0,0,0,0,0,0,-0.1481,-0.1482,-0.1496,-0.1497,-0.15,-0.1522,-0.1518,-0.1522,-0.1551,-0.1559,-0.1565,-0.1565,-0.1588,-0.1594,-0.1636,-0.1653,-0.1622,-0.1624,-0.1708,-0.171,-0.1711,-0.1736,0,0,0,0,0,0,-0.1481,-0.1481,-0.1494,-0.1496,-0.15,-0.1523,-0.1518,-0.1523,-0.1552,-0.1555,-0.1584,-0.1589,-0.1588,-0.1633,-0.1638,-0.1656,-0.1626,-0.1707,-0.1709,-0.1711,-0.1734,-0.1738,-0.1742,0,0,0,0,0,-0.148,-0.1496,-0.1494,-0.1496,-0.151,-0.1524,-0.1529,-0.1545,-0.1554,-0.1571,-0.1593,-0.1589,-0.1649,-0.1636,-0.1642,-0.166,-0.1706,-0.1708,-0.1711,-0.1732,-0.1737,-0.1742,0,0,0,0,0,0,-0.1502,-0.1499,-0.1498,-0.1513,-0.1523,-0.1528,-0.1554,-0.156,-0.1591,-0.1603,-0.1608,-0.1614,-0.1647,-0.1659,-0.1644,-0.1692,-0.1675,-0.1679,-0.1689,-0.1694,-0.1698,-0.1719,-0.1627,0,0,0,0,0,-0.1509,-0.152,-0.1518,-0.1534,-0.154,-0.1551,-0.1566,-0.1575,-0.1594,-0.1609,-0.1628,-0.1649,-0.1659,-0.1682,-0.1691,-0.1732,-0.1727,-0.1746,-0.1751,-0.1754,-0.1775,-0.178,-0.1786,-0.172,-0.172,-0.172,0,0,-0.1526,-0.1525,-0.1534,-0.1541,-0.1552,-0.1573,-0.1561,-0.1591,-0.1616,-0.1611,-0.1664,-0.1662,-0.167,-0.1701,-0.1719,-0.1719,-0.1766,-0.1757,-0.176,-0.178,-0.1783,-0.1789,-0.1795,-0.1721,-0.1721,-0.1721,0,0,-0.1555,-0.156,-0.1576,-0.1588,-0.1606,-0.1611,-0.1624,-0.1642,-0.1658,-0.1697,-0.1691,-0.1709,-0.1742,-0.1747,-0.1751,-0.1791,-0.1776,-0.1792,-0.1846,-0.1849,-0.1855,-0.1859,-0.1838,-0.1841,-0.1808,-0.1808,-0.1808,0,-0.1572,-0.1585,-0.1587,-0.1606,-0.1623,-0.1631,-0.1656,-0.1676,-0.1709,-0.1726,-0.1722,-0.1761,-0.1762,-0.1794,-0.1804,-0.18,-0.1795,-0.1822,-0.1854,-0.1859,-0.1863,-0.184,-0.1843,-0.181,-0.181,-0.1809,-0.1809,0,-0.1601,-0.1626,-0.1641,-0.1662,-0.1686,-0.171,-0.1729,-0.1761,-0.1778,-0.1791,-0.1826,-0.1827,-0.1851,-0.1847,-0.184,-0.1875,-0.1855,-0.1844,-0.1838,-0.1871,-0.1845,-0.1847,-0.1812,-0.1811,-0.1811,-0.1811,0,0,-0.1577,-0.1646,-0.1649,-0.1673,-0.1715,-0.1729,-0.1784,-0.1816,-0.1846,-0.1878,-0.1908,-0.1927,-0.1926,-0.1933,-0.1922,-0.1937,-0.1944,-0.1917,-0.1916,-0.1891,-0.1939,-0.1798,-0.1787,-0.194,-0.1941,-0.1942,-0.1899,0,-0.1588,-0.1638,-0.1672,-0.1727,-0.1749,-0.1787,-0.183,-0.187,-0.1897,-0.1932,-0.1943,-0.1964,-0.1958,-0.1963,-0.198,-0.1948,-0.1956,-0.1956,-0.1917,-0.1916,-0.1783,-0.1787,-0.1946,-0.1901,-0.1901,-0.1902,-0.1902,0,-0.1581,-0.1617,-0.1676,-0.1746,-0.176,-0.1802,-0.1862,-0.1903,-0.1958,-0.1979,-0.2019,-0.2021,-0.205,-0.2029,-0.2028,-0.2029,-0.1998,-0.1975,-0.1972,-0.184,-0.178,-0.1868,-0.1906,-0.1906,-0.1905,-0.1905,-0.1905,0,-0.153,-0.1609,-0.1657,-0.1682,-0.1769,-0.1807,-0.1851,-0.1918,-0.195,-0.2011,-0.2033,-0.207,-0.2076,-0.2068,-0.2027,-0.2032,-0.2004,-0.1994,-0.1841,-0.183,-0.196,-0.1956,-0.1997,-0.1998,-0.1998,-0.1998,-0.1998,0,-0.1498,-0.1536,-0.1642,-0.1665,-0.1718,-0.1789,-0.1846,-0.1896,-0.1963,-0.1992,-0.2053,-0.206,-0.2091,-0.2075,-0.2039,-0.1935,-0.2011,-0.185,-0.1813,-0.1968,-0.1965,-0.196,-0.1956,-0.1996,-0.1996,-0.1997,-0.1997,0,-0.1427,-0.1503,-0.156,-0.1663,-0.1698,-0.1733,-0.1834,-0.1866,-0.1946,-0.1984,-0.2004,-0.2058,-0.2028,-0.2027,-0.1992,-0.1923,-0.185,-0.1797,-0.1949,-0.1921,-0.1673,-0.1671,-0.1621,-0.1616,-0.1611,-0.1607,-0.1604,0,-0.1395,-0.1421,-0.154,-0.1576,-0.1627,-0.1698,-0.1741,-0.1839,-0.1873,-0.1955,-0.1955,-0.1968,-0.198,-0.1813,-0.1833,-0.1746,-0.1726,-0.1684,-0.1699,-0.1667,-0.1637,-0.1642,-0.1646,-0.1597,-0.1596,-0.1595,-0.1594,0,-0.1321,-0.1378,-0.1425,-0.1497,-0.1555,-0.161,-0.1681,-0.1689,-0.1789,-0.1888,-0.1842,-0.1801,-0.1758,-0.171,-0.1652,-0.1597,-0.171,-0.1638,-0.1647,-0.166,-0.1637,-0.1613,-0.1622,-0.1578,-0.158,-0.1582,-0.1583,0,-0.1262,-0.1275,-0.1343,-0.1388,-0.1462,-0.1479,-0.1537,-0.1563,-0.1601,-0.1705,-0.168,-0.1685,-0.174,-0.163,-0.1575,-0.1507,-0.1484,-0.144,-0.1459,-0.1477,-0.1446,-0.1397,-0.123,0,0,0,0,0,-0.1191,-0.1188,-0.1227,-0.1263,-0.133,-0.1363,-0.1474,-0.1538,-0.1641,-0.1567,-0.1618,-0.1566,-0.1476,-0.1483,-0.1375,-0.1498,-0.1488,-0.1368,-0.1448,-0.1492,-0.151,-0.1486,0,0,0,0,0,0,-0.1142,-0.1172,-0.1179,-0.1138,-0.1136,-0.1186,-0.1244,-0.1325,-0.1302,-0.1414,-0.1373,-0.1457,-0.1393,-0.1492,-0.1332,-0.1333,-0.1349,-0.1387,-0.1382,-0.1482,-0.1499,-0.1513,-0.1495,0,0,0,0,0]},{"header":{"parameterUnit":"m.s-1","parameterCategory":2,"la1":30.2991,"la2":30.254,"lo1":-89.0895,"lo2":-89.0444,"dy":0.0017,"dx":0.0017,"nx":28,"ny":28,"refTime":"2023-08-27T21:00:00:Z","depth":"4","parameterNumber":3,"parameterNumberName":"V-component_of_CURRENTS"},"data":[0,0,0,0,0,0,0,0,0,0,0,0,0,0,0,0,0,0,0,0,0,0,0,0,0,0,0,0,0,0,0,0,0,0,0,0,0,0,0,0,0,0,0,0,0,0,0,0,0,0,0,0,0,0,0,0,0,0,-0.0201,-0.0201,0,-0.0153,-0.0152,-0.0151,-0.0116,-0.0116,-0.0115,-0.0115,-0.005,-0.0048,-0.0047,0,0,0,0,0,0,0,0,0,0,0,0,0,-0.0222,-0.0222,-0.0202,-0.0201,-0.02,-0.0153,-0.0152,-0.0151,-0.0116,-0.0116,-0.0115,-0.0115,-0.005,-0.0049,-0.0047,0,0,0,0,0,0,0,0,0,0,0,0,0,-0.0197,-0.0222,-0.0202,-0.0177,-0.0174,-0.0153,-0.0152,-0.0151,-0.0116,-0.0116,-0.0115,-0.0115,-0.0051,-0.0049,-0.0047,-0.0042,0,0,-0.004,-0.0039,0,0,0,0,0,0,0,0,-0.0199,-0.0196,-0.0181,-0.0179,-0.0176,-0.014,-0.0135,-0.0114,-0.0116,-0.0138,-0.0115,-0.0115,-0.0079,-0.0074,-0.0066,-0.0039,-0.0036,-0.004,-0.0038,-0.0037,-0.0037,0,0,0,0,0,0,0,-0.02,-0.0198,-0.0182,-0.0181,-0.0177,-0.0154,-0.015,-0.0131,-0.0111,-0.0136,-0.0134,-0.0128,-0.0077,-0.0069,-0.0064,-0.0035,-0.004,-0.0038,-0.0036,-0.0036,-0.0003,-0.0003,0,0,0,0,0,0,-0.0209,-0.02,-0.0184,-0.0181,-0.0186,-0.0154,-0.015,-0.0152,-0.0112,-0.0105,-0.0129,-0.0127,-0.0072,-0.0067,-0.0062,-0.0059,-0.0037,-0.0035,-0.0034,-0.0003,-0.0003,-0.0004,0,0,0,0,0,0,-0.021,-0.0208,-0.0186,-0.0189,-0.0184,-0.0154,-0.0157,-0.0151,-0.0144,-0.0106,-0.0099,-0.0128,-0.0072,-0.0065,-0.0051,-0.0056,-0.0034,-0.0032,-0.0002,-0.0003,-0.0003,-0.0049,0,0,0,0,0,0,-0.0211,-0.0209,-0.0213,-0.019,-0.0184,-0.0182,-0.0157,-0.015,-0.0142,-0.0139,-0.0103,-0.0096,-0.0071,-0.0055,-0.0049,-0.0052,-0.0031,-0.0001,-0.0002,-0.0003,-0.0047,-0.0051,-0.0055,0,0,0,0,0,-0.0212,-0.0221,-0.0213,-0.0211,-0.0191,-0.0182,-0.0178,-0.0154,-0.0142,-0.0145,-0.0121,-0.0098,-0.0056,-0.0054,-0.0047,-0.0049,-0.0001,-0.0002,-0.0003,-0.0045,-0.0051,-0.0055,0,0,0,0,0,0,-0.0235,-0.0217,-0.0209,-0.0213,-0.0202,-0.0176,-0.0175,-0.016,-0.0143,-0.014,-0.0104,-0.0096,-0.009,-0.0064,-0.0062,-0.0043,-0.0024,-0.0024,-0.0059,-0.0064,-0.0067,-0.006,-0.0029,0,0,0,0,0,-0.0242,-0.0244,-0.0225,-0.0231,-0.0226,-0.0202,-0.0195,-0.0182,-0.0163,-0.0155,-0.013,-0.0105,-0.0089,-0.0072,-0.0058,-0.0043,-0.0004,-0.004,-0.0044,-0.0047,-0.0037,0.0019,0.0021,-0.0007,-0.0007,-0.0007,0,0,-0.0254,-0.0244,-0.0246,-0.0236,-0.0224,-0.0224,-0.0197,-0.0194,-0.0191,-0.0151,-0.0142,-0.0125,-0.0092,-0.0081,-0.0074,-0.0057,-0.0023,-0.0049,-0.0052,-0.0039,0.0018,0.0021,0.0024,-0.0008,-0.0007,-0.0007,0,0,-0.0281,-0.0271,-0.0282,-0.0276,-0.0263,-0.0245,-0.0247,-0.0226,-0.0214,-0.0206,-0.0179,-0.0158,-0.0135,-0.0103,-0.0087,-0.0101,-0.0055,-0.0104,-0.0103,-0.005,-0.0047,-0.0044,-0.0006,0.0002,-0.0093,-0.0093,-0.0094,0,-0.0297,-0.0306,-0.0285,-0.0294,-0.0291,-0.0258,-0.027,-0.0252,-0.023,-0.0215,-0.0212,-0.0163,-0.0141,-0.0107,-0.0115,-0.0108,-0.0076,-0.0089,-0.0054,-0.005,-0.0045,-0.0007,0.0002,-0.0096,-0.0096,-0.0095,-0.0095,0,-0.0332,-0.0337,-0.0344,-0.0342,-0.0337,-0.0343,-0.0317,-0.0304,-0.0285,-0.0261,-0.0234,-0.0199,-0.0162,-0.0157,-0.014,-0.0101,-0.0089,-0.0076,-0.0041,-0.0045,-0.0005,0.0005,-0.0099,-0.0098,-0.0098,-0.0097,0,0,-0.0366,-0.0369,-0.0371,-0.0378,-0.0363,-0.0364,-0.0353,-0.0329,-0.0314,-0.0284,-0.0259,-0.0226,-0.0195,-0.0173,-0.0143,-0.0092,-0.0046,-0.0073,-0.0069,-0.0032,0.0063,0.005,0.006,-0.0025,-0.0023,-0.0022,0.0074,0,-0.0398,-0.043,-0.0417,-0.0438,-0.0448,-0.0414,-0.0406,-0.0378,-0.0347,-0.0313,-0.0254,-0.0229,-0.0203,-0.0188,-0.0133,-0.0072,-0.002,-0.0074,0.0061,0.0065,0.0057,0.0071,-0.0016,0.0082,0.0084,0.0086,0.0087,0,-0.0429,-0.0446,-0.0481,-0.048,-0.0481,-0.0489,-0.0461,-0.045,-0.0386,-0.036,-0.0305,-0.0259,-0.0185,-0.0168,-0.0037,-0.0074,-0.0008,0.0046,0.0051,0.0067,0.0071,0.0092,0.0105,0.0104,0.0103,0.0101,0.01,0,-0.046,-0.0482,-0.0513,-0.0518,-0.0515,-0.0521,-0.0514,-0.0468,-0.0453,-0.0387,-0.0365,-0.0268,-0.0222,-0.012,-0.0012,-0.0021,0.0132,0.0136,0.0191,0.019,0.0194,0.019,0.0237,0.0237,0.0237,0.0237,0.0237,0,-0.0487,-0.051,-0.0537,-0.0555,-0.0584,-0.0566,-0.0577,-0.0546,-0.0503,-0.0476,-0.0396,-0.0347,-0.0207,-0.0103,-0.0007,0.0121,0.0142,0.02,0.0221,0.0169,0.0161,0.0201,0.0195,0.024,0.024,0.0239,0.0238,0,-0.0509,-0.0526,-0.0565,-0.059,-0.0602,-0.0625,-0.0633,-0.063,-0.0584,-0.0544,-0.0523,-0.0397,-0.0258,-0.0121,0.0053,0.0121,0.0246,0.0287,0.0216,0.023,0.0266,0.0257,0.0361,0.0361,0.0362,0.0362,0.0362,0,-0.0521,-0.0546,-0.0605,-0.0641,-0.0659,-0.0692,-0.0708,-0.0677,-0.0662,-0.0567,-0.0541,-0.0404,-0.0308,-0.0069,0.0066,0.0255,0.0277,0.0333,0.0308,0.0273,0.0283,0.0273,0.0264,0.0363,0.0363,0.0363,0.0363,0,-0.0544,-0.0572,-0.0609,-0.0689,-0.0731,-0.0765,-0.078,-0.0771,-0.0709,-0.0669,-0.0531,-0.0395,-0.0238,-0.0057,0.0088,0.022,0.0291,0.0338,0.0338,0.0315,0.0277,0.0284,0.0274,0.0365,0.0365,0.0365,0.0364,0,-0.0562,-0.0602,-0.0663,-0.0725,-0.0785,-0.0818,-0.0822,-0.078,-0.0748,-0.0621,-0.0573,-0.0393,-0.0273,-0.0074,0.006,0.0187,0.0215,0.0244,0.0249,0.0249,0.018,0.0113,0.018,0,0,0,0,0,-0.0575,-0.0626,-0.0695,-0.0765,-0.0825,-0.0852,-0.0856,-0.0841,-0.0773,-0.0676,-0.0616,-0.0459,-0.0227,-0.0123,0.0004,0.0039,0.0208,0.0187,0.0236,0.0373,0.0371,0.0308,0,0,0,0,0,0,-0.0589,-0.0658,-0.0697,-0.0781,-0.0831,-0.0885,-0.0886,-0.0844,-0.0771,-0.0682,-0.0552,-0.0447,-0.0225,-0.0299,0.0001,0.0041,0.0084,0.0307,0.031,0.0374,0.0372,0.0371,0.0305,0,0,0,0,0]}]]